Location: Binningen
(47.7924°N, 8.7261°E)
Time: 04:21:19
(UTC+00:00)

Cosmos 1733 Rocket - Pass Details

Date: 08 October 2021
Orbit: 604 x 627 km, 82.5° (Epoch: 16 October)

Event Time Altitude Azimuth Distance (km) Brightness Sun altitude
Rises 17:38:05 0° 246° (WSW) 2,857 7.8 -8.9°
Reaches altitude 10° 17:42:07 10° 283° (WNW) 1,966 7.1 -9.5°
Maximum altitude 17:43:14 11° 298° (WNW) 1,913 6.7 -9.7°
Drops below altitude 10° 17:44:22 10° 313° (NW) 1,972 6.4 -9.9°
Sets 17:48:28 0° 351° (N) 2,891 6.6 -10.6°
